Location: McFarlands Corners
(41.4117°N, 81.3382°W)
Time: 19:58:33
(UTC+00:00)

BlueWalker 3 - Pass Details

Date: 24 January 2026
Orbit: 450 x 461 km, 53.2° (Epoch: 11 February)

Event Time Altitude Azimuth Distance (km) Brightness Sun altitude
Rises 00:00:43 0° 253° (WSW) 2,449 7.2 -16.9°
Reaches altitude 10° 00:02:58 10° 262° (W) 1,579 5.8 -17.3°
Maximum altitude 00:06:15 35° 330° (NNW) 747 2.9 -17.9°
Enters shadow 00:07:34 26° 13° (NNE) 929 3.0 -18.1°
